DAL635 MKJP-SKBQ

Flight info

Callsign DAL635
Flight time 1h 9m
Altitude 39000
Route ALPEN3 ALPEN DCT SIPOK DCT MORGI MORGI1B
Aircraft B772/H-SDE2E3FGHIJ5LORVWXY/LB1D1

Departure

Time 2026-04-22 15:36
Airport Norman Manley International Airport (MKJP)

Arrival

Time 2026-04-22 16:46
Airport Ernesto Cortissoz International Airport (SKBQ)
Time Latitude Longitude Altitude Speed Heading
2026-04-22 15:34 17.93122 -76.77602 26 ft 0 kts 292°
2026-04-22 15:35 17.93126 -76.77610 29 ft 10 kts 292°
2026-04-22 15:35 17.93215 -76.77841 30 ft 60 kts 292°
2026-04-22 15:35 17.93465 -76.78487 21 ft 131 kts 292°
2026-04-22 15:36 17.93887 -76.79580 24 ft 192 kts 292°
2026-04-22 15:36 17.94416 -76.80951 604 ft 201 kts 292°
2026-04-22 15:36 17.94929 -76.82274 1695 ft 195 kts 292°
2026-04-22 15:36 17.95273 -76.83687 2049 ft 209 kts 264°
2026-04-22 15:37 17.94663 -76.85086 2114 ft 224 kts 221°
2026-04-22 15:37 17.93225 -76.85751 2236 ft 239 kts 182°
2026-04-22 15:37 17.91596 -76.85301 2410 ft 255 kts 145°
2026-04-22 15:37 17.90272 -76.84023 2638 ft 264 kts 135°
2026-04-22 15:38 17.88976 -76.82626 3107 ft 270 kts 135°
2026-04-22 15:38 17.86256 -76.79888 4210 ft 274 kts 141°
2026-04-22 15:38 17.84755 -76.78665 4738 ft 275 kts 147°
2026-04-22 15:39 17.83128 -76.77599 5260 ft 277 kts 152°
2026-04-22 15:39 17.81411 -76.76671 5784 ft 278 kts 156°
2026-04-22 15:39 17.79637 -76.75847 6291 ft 280 kts 160°
2026-04-22 15:39 17.77820 -76.75106 6782 ft 282 kts 162°
2026-04-22 15:40 17.75964 -76.74417 7253 ft 285 kts 163°
2026-04-22 15:40 17.74090 -76.73764 7723 ft 287 kts 165°
2026-04-22 15:40 17.72793 -76.73329 8043 ft 289 kts 165°
2026-04-22 15:41 17.72053 -76.73087 8226 ft 289 kts 166°
2026-04-22 15:41 17.70127 -76.72466 8695 ft 292 kts 166°
2026-04-22 15:41 17.68179 -76.71850 9143 ft 294 kts 167°
2026-04-22 15:41 17.66216 -76.71238 9590 ft 296 kts 167°
2026-04-22 15:42 17.64922 -76.70838 9869 ft 298 kts 167°
2026-04-22 15:42 17.64101 -76.70584 9983 ft 300 kts 167°
2026-04-22 15:42 17.62087 -76.69966 9948 ft 303 kts 167°
2026-04-22 15:43 17.60082 -76.69350 9952 ft 299 kts 167°
2026-04-22 15:43 17.58097 -76.68741 9949 ft 297 kts 167°
2026-04-22 15:43 17.56101 -76.68132 10092 ft 305 kts 168°
2026-04-22 15:43 17.54016 -76.67499 10217 ft 320 kts 168°
2026-04-22 15:44 17.51824 -76.66834 10352 ft 337 kts 167°
2026-04-22 15:44 17.49523 -76.66135 10486 ft 354 kts 167°
2026-04-22 15:44 17.47119 -76.65402 10768 ft 366 kts 168°
2026-04-22 15:44 17.44644 -76.64646 11182 ft 375 kts 168°
2026-04-22 15:45 17.42130 -76.63877 11758 ft 379 kts 168°
2026-04-22 15:45 17.39595 -76.63101 12392 ft 382 kts 169°
2026-04-22 15:45 17.37033 -76.62319 13022 ft 386 kts 169°
2026-04-22 15:45 17.34449 -76.61531 13637 ft 390 kts 170°
2026-04-22 15:46 17.31838 -76.60737 14231 ft 394 kts 170°
2026-04-22 15:46 17.29191 -76.59932 14832 ft 398 kts 171°
2026-04-22 15:46 17.26520 -76.59153 15436 ft 401 kts 172°
2026-04-22 15:46 17.23816 -76.58402 16007 ft 405 kts 173°
2026-04-22 15:47 17.21078 -76.57656 16598 ft 409 kts 174°
2026-04-22 15:47 17.18322 -76.56906 17194 ft 412 kts 174°
2026-04-22 15:47 17.16562 -76.56426 17553 ft 415 kts 174°
2026-04-22 15:48 17.14165 -76.55771 18040 ft 418 kts 175°
2026-04-22 15:48 17.11344 -76.54997 18606 ft 422 kts 175°
2026-04-22 15:48 17.08493 -76.54213 19167 ft 426 kts 175°
2026-04-22 15:49 17.05625 -76.53422 19709 ft 430 kts 176°
2026-04-22 15:49 17.02727 -76.52623 20253 ft 433 kts 176°
2026-04-22 15:49 16.99806 -76.51816 20772 ft 437 kts 175°
2026-04-22 15:49 16.96859 -76.51003 21272 ft 441 kts 175°
2026-04-22 15:50 16.93888 -76.50183 21771 ft 445 kts 175°
2026-04-22 15:50 16.90890 -76.49355 22278 ft 448 kts 175°
2026-04-22 15:50 16.87873 -76.48523 22772 ft 451 kts 175°
2026-04-22 15:50 16.84839 -76.47685 23241 ft 454 kts 175°
2026-04-22 15:51 16.81782 -76.46842 23688 ft 457 kts 175°
2026-04-22 15:51 16.78701 -76.45993 24118 ft 460 kts 175°
2026-04-22 15:51 16.75604 -76.45140 24532 ft 463 kts 175°
2026-04-22 15:51 16.72483 -76.44281 24934 ft 466 kts 175°
2026-04-22 15:52 16.69348 -76.43417 25325 ft 469 kts 175°
2026-04-22 15:52 16.66194 -76.42549 25704 ft 471 kts 175°
2026-04-22 15:52 16.63022 -76.41677 26070 ft 474 kts 175°
2026-04-22 15:52 16.59830 -76.40799 26418 ft 476 kts 175°
2026-04-22 15:53 16.56622 -76.39917 26758 ft 479 kts 175°
2026-04-22 15:53 16.53400 -76.39031 27076 ft 481 kts 175°
2026-04-22 15:53 16.50160 -76.38141 27398 ft 484 kts 174°
2026-04-22 15:53 16.46900 -76.37246 27690 ft 486 kts 174°
2026-04-22 15:54 16.43633 -76.36349 27983 ft 488 kts 174°
2026-04-22 15:54 16.40348 -76.35447 28283 ft 490 kts 174°
2026-04-22 15:54 16.37051 -76.34543 28541 ft 492 kts 174°
2026-04-22 15:54 16.33743 -76.33635 28825 ft 494 kts 174°
2026-04-22 15:55 16.30422 -76.32724 29099 ft 495 kts 174°
2026-04-22 15:55 16.27096 -76.31813 29356 ft 497 kts 174°
2026-04-22 15:55 16.23753 -76.30897 29570 ft 499 kts 174°
2026-04-22 15:55 16.20400 -76.29980 29793 ft 500 kts 174°
2026-04-22 15:56 16.17032 -76.29058 30016 ft 502 kts 174°
2026-04-22 15:56 16.13658 -76.28135 30202 ft 504 kts 174°
2026-04-22 15:56 16.10269 -76.27208 30391 ft 505 kts 174°
2026-04-22 15:56 16.06875 -76.26279 30570 ft 506 kts 174°
2026-04-22 15:57 16.03474 -76.25349 30767 ft 507 kts 174°
2026-04-22 15:57 16.00069 -76.24418 31016 ft 506 kts 174°
2026-04-22 15:57 15.96670 -76.23487 31282 ft 505 kts 174°
2026-04-22 15:57 15.93284 -76.22561 31533 ft 504 kts 174°
2026-04-22 15:58 15.89894 -76.21635 31755 ft 504 kts 174°
2026-04-22 15:58 15.86509 -76.20712 31966 ft 504 kts 174°
2026-04-22 15:58 15.83129 -76.19790 32187 ft 503 kts 174°
2026-04-22 15:58 15.79746 -76.18868 32405 ft 503 kts 174°
2026-04-22 15:59 15.76371 -76.17948 32611 ft 502 kts 174°
2026-04-22 15:59 15.73002 -76.17030 32810 ft 502 kts 174°
2026-04-22 15:59 15.69631 -76.16113 33010 ft 501 kts 174°
2026-04-22 15:59 15.66263 -76.15196 33207 ft 501 kts 174°
2026-04-22 16:00 15.62900 -76.14280 33387 ft 501 kts 174°
2026-04-22 16:00 15.59547 -76.13368 33576 ft 500 kts 174°
2026-04-22 16:00 15.56556 -76.12555 33732 ft 500 kts 174°
2026-04-22 16:00 15.53199 -76.11642 33916 ft 500 kts 174°
2026-04-22 16:01 15.49846 -76.10731 34101 ft 499 kts 174°
2026-04-22 16:01 15.46494 -76.09820 34282 ft 499 kts 174°
2026-04-22 16:01 15.43144 -76.08910 34471 ft 498 kts 174°
2026-04-22 16:01 15.39800 -76.08002 34647 ft 498 kts 174°
2026-04-22 16:02 15.36457 -76.07094 34810 ft 498 kts 174°
2026-04-22 16:02 15.33114 -76.06187 34999 ft 497 kts 174°
2026-04-22 16:02 15.29780 -76.05283 35159 ft 497 kts 174°
2026-04-22 16:02 15.26443 -76.04378 35324 ft 496 kts 174°
2026-04-22 16:03 15.23108 -76.03474 35493 ft 496 kts 174°
2026-04-22 16:03 15.19777 -76.02571 35654 ft 496 kts 174°
2026-04-22 16:03 15.16446 -76.01669 35806 ft 495 kts 174°
2026-04-22 16:03 15.13123 -76.00769 35950 ft 495 kts 174°
2026-04-22 16:04 15.09795 -75.99868 36094 ft 495 kts 174°
2026-04-22 16:04 15.06477 -75.98970 36229 ft 495 kts 174°
2026-04-22 16:04 15.03153 -75.98071 36350 ft 495 kts 174°
2026-04-22 16:04 14.99827 -75.97172 36460 ft 495 kts 174°
2026-04-22 16:05 14.96502 -75.96273 36576 ft 495 kts 174°
2026-04-22 16:05 14.93176 -75.95374 36696 ft 495 kts 174°
2026-04-22 16:05 14.89851 -75.94476 36800 ft 495 kts 174°
2026-04-22 16:05 14.86533 -75.93580 36887 ft 495 kts 174°
2026-04-22 16:06 14.79870 -75.91782 36997 ft 497 kts 174°
2026-04-22 16:06 14.73177 -75.89977 37005 ft 498 kts 174°
2026-04-22 16:07 14.66469 -75.88168 37009 ft 500 kts 174°
2026-04-22 16:07 14.59743 -75.86355 37006 ft 501 kts 174°
2026-04-22 16:08 14.53007 -75.84540 37003 ft 502 kts 174°
2026-04-22 16:08 14.46269 -75.82726 37004 ft 501 kts 174°
2026-04-22 16:09 14.39537 -75.80914 37003 ft 501 kts 174°
2026-04-22 16:09 14.32818 -75.79108 37002 ft 500 kts 174°
2026-04-22 16:10 14.26113 -75.77306 37003 ft 498 kts 174°
2026-04-22 16:10 14.19425 -75.75511 37003 ft 497 kts 174°
2026-04-22 16:11 14.12747 -75.73719 37003 ft 496 kts 174°
2026-04-22 16:11 14.06079 -75.71931 37004 ft 496 kts 174°
2026-04-22 16:12 13.99422 -75.70148 37004 ft 495 kts 174°
2026-04-22 16:12 13.92769 -75.68366 37004 ft 495 kts 174°
2026-04-22 16:13 13.86122 -75.66587 37004 ft 495 kts 174°
2026-04-22 16:13 13.79475 -75.64809 37005 ft 495 kts 174°
2026-04-22 16:14 13.72824 -75.63031 37004 ft 495 kts 174°
2026-04-22 16:14 13.66174 -75.61255 37004 ft 495 kts 174°
2026-04-22 16:15 13.59514 -75.59476 37007 ft 495 kts 174°
2026-04-22 16:15 13.52853 -75.57699 37004 ft 496 kts 174°
2026-04-22 16:16 13.46191 -75.55922 37007 ft 496 kts 174°
2026-04-22 16:16 13.39521 -75.54143 37004 ft 496 kts 174°
2026-04-22 16:17 13.32849 -75.52366 37003 ft 496 kts 174°
2026-04-22 16:17 13.26183 -75.50590 37004 ft 496 kts 174°
2026-04-22 16:18 13.19507 -75.48813 37005 ft 496 kts 174°
2026-04-22 16:18 13.12841 -75.47041 37004 ft 496 kts 174°
2026-04-22 16:19 13.06168 -75.45266 37004 ft 496 kts 174°
2026-04-22 16:19 12.99501 -75.43495 37004 ft 496 kts 174°
2026-04-22 16:20 12.92829 -75.41723 37004 ft 496 kts 175°
2026-04-22 16:20 12.86166 -75.39967 37004 ft 495 kts 175°
2026-04-22 16:21 12.79499 -75.38217 37004 ft 495 kts 175°
2026-04-22 16:21 12.72837 -75.36467 37004 ft 495 kts 175°
2026-04-22 16:22 12.62850 -75.33844 37004 ft 495 kts 175°
2026-04-22 16:23 12.52863 -75.31222 37004 ft 495 kts 175°
2026-04-22 16:23 12.46163 -75.29470 36241 ft 505 kts 175°
2026-04-22 16:24 12.42764 -75.28582 35641 ft 505 kts 174°
2026-04-22 16:24 12.36033 -75.26808 34660 ft 497 kts 175°
2026-04-22 16:24 12.32704 -75.25931 34181 ft 493 kts 175°
2026-04-22 16:25 12.29395 -75.25061 33703 ft 490 kts 175°
2026-04-22 16:25 12.22855 -75.23348 32750 ft 483 kts 175°
2026-04-22 16:25 12.19609 -75.22499 32271 ft 480 kts 175°
2026-04-22 16:26 12.16386 -75.21657 31799 ft 478 kts 175°
2026-04-22 16:26 12.13186 -75.20820 31324 ft 474 kts 175°
2026-04-22 16:26 12.10003 -75.19987 30854 ft 471 kts 175°
2026-04-22 16:26 12.06845 -75.19162 30402 ft 468 kts 175°
2026-04-22 16:27 12.03703 -75.18340 29940 ft 465 kts 175°
2026-04-22 16:27 12.00586 -75.17525 29461 ft 461 kts 175°
2026-04-22 16:27 11.97500 -75.16718 28983 ft 458 kts 175°
2026-04-22 16:27 11.94434 -75.15917 28494 ft 454 kts 175°
2026-04-22 16:28 11.91392 -75.15122 28034 ft 450 kts 176°
2026-04-22 16:28 11.88380 -75.14336 27562 ft 446 kts 176°
2026-04-22 16:28 11.85392 -75.13556 27105 ft 442 kts 176°
2026-04-22 16:28 11.82428 -75.12783 26644 ft 439 kts 176°
2026-04-22 16:29 11.79488 -75.12017 26196 ft 435 kts 176°
2026-04-22 16:29 11.76570 -75.11256 25740 ft 432 kts 176°
2026-04-22 16:29 11.73679 -75.10503 25299 ft 428 kts 176°
2026-04-22 16:29 11.70811 -75.09756 24845 ft 425 kts 176°
2026-04-22 16:30 11.68910 -75.09260 24551 ft 423 kts 176°
2026-04-22 16:30 11.65139 -75.08277 23975 ft 418 kts 176°
2026-04-22 16:30 11.62334 -75.07546 23525 ft 415 kts 176°
2026-04-22 16:30 11.59553 -75.06820 23100 ft 412 kts 176°
2026-04-22 16:31 11.56790 -75.06099 22679 ft 409 kts 177°
2026-04-22 16:31 11.54051 -75.05386 22233 ft 406 kts 177°
2026-04-22 16:31 11.51327 -75.04676 21799 ft 404 kts 177°
2026-04-22 16:31 11.48619 -75.03972 21369 ft 401 kts 177°
2026-04-22 16:32 11.45932 -75.03273 20949 ft 398 kts 177°
2026-04-22 16:32 11.43260 -75.02578 20518 ft 396 kts 177°
2026-04-22 16:32 11.40605 -75.01887 20094 ft 393 kts 177°
2026-04-22 16:32 11.37967 -75.01201 19673 ft 391 kts 177°
2026-04-22 16:33 11.35347 -75.00521 19262 ft 389 kts 177°
2026-04-22 16:33 11.32738 -74.99843 18837 ft 386 kts 177°
2026-04-22 16:33 11.30151 -74.99172 18420 ft 384 kts 176°
2026-04-22 16:33 11.27573 -74.98502 17996 ft 382 kts 176°
2026-04-22 16:34 11.25013 -74.97837 17589 ft 380 kts 176°
2026-04-22 16:34 11.22467 -74.97176 17174 ft 378 kts 175°
2026-04-22 16:34 11.19931 -74.96518 16760 ft 376 kts 175°
2026-04-22 16:34 11.17411 -74.95863 16370 ft 373 kts 175°
2026-04-22 16:35 11.14907 -74.95213 15954 ft 371 kts 174°
2026-04-22 16:35 11.12422 -74.94568 15612 ft 367 kts 174°
2026-04-22 16:35 11.09975 -74.93930 15372 ft 360 kts 174°
2026-04-22 16:35 11.07575 -74.93306 15094 ft 354 kts 174°
2026-04-22 16:36 11.05204 -74.92692 14719 ft 352 kts 174°
2026-04-22 16:36 11.02843 -74.92081 14310 ft 350 kts 173°
2026-04-22 16:36 11.00489 -74.91472 13906 ft 349 kts 173°
2026-04-22 16:36 10.98177 -74.90988 13639 ft 326 kts 186°
2026-04-22 16:37 10.96107 -74.91427 13481 ft 291 kts 217°
2026-04-22 16:37 10.94757 -74.92779 13270 ft 265 kts 248°
2026-04-22 16:37 10.94142 -74.94489 12891 ft 255 kts 252°
2026-04-22 16:37 10.93294 -74.96103 12297 ft 265 kts 237°
2026-04-22 16:38 10.92059 -74.97496 11933 ft 266 kts 227°
2026-04-22 16:38 10.90659 -74.98726 11560 ft 267 kts 224°
2026-04-22 16:38 10.89189 -74.99885 11161 ft 270 kts 219°
2026-04-22 16:38 10.87601 -75.00914 10770 ft 272 kts 213°
2026-04-22 16:39 10.85904 -75.01765 10402 ft 274 kts 207°
2026-04-22 16:39 10.84111 -75.02412 10039 ft 275 kts 200°
2026-04-22 16:39 10.82240 -75.02840 9680 ft 277 kts 193°
2026-04-22 16:39 10.80328 -75.03043 9343 ft 278 kts 186°
2026-04-22 16:40 10.78399 -75.03021 9015 ft 278 kts 179°
2026-04-22 16:40 10.76481 -75.02776 8652 ft 279 kts 172°
2026-04-22 16:40 10.72785 -75.01619 8008 ft 279 kts 158°
2026-04-22 16:41 10.71066 -75.00724 7674 ft 279 kts 151°
2026-04-22 16:41 10.69486 -74.99605 7316 ft 277 kts 137°
2026-04-22 16:41 10.68490 -74.97948 6856 ft 280 kts 103°
2026-04-22 16:41 10.68538 -74.96009 6459 ft 277 kts 68°
2026-04-22 16:42 10.69618 -74.94443 6095 ft 270 kts 38°
2026-04-22 16:42 10.71065 -74.93241 5651 ft 270 kts 38°
2026-04-22 16:42 10.72502 -74.92009 5279 ft 272 kts 38°
2026-04-22 16:42 10.73959 -74.90781 4893 ft 273 kts 37°
2026-04-22 16:43 10.75420 -74.89616 4518 ft 262 kts 35°
2026-04-22 16:43 10.76878 -74.88559 4133 ft 253 kts 32°
2026-04-22 16:43 10.78353 -74.87611 3619 ft 250 kts 30°
2026-04-22 16:43 10.79788 -74.86632 3030 ft 247 kts 38°
2026-04-22 16:44 10.81012 -74.85434 2215 ft 245 kts 47°
2026-04-22 16:44 10.82126 -74.84153 1574 ft 237 kts 47°
2026-04-22 16:44 10.83244 -74.82960 1183 ft 227 kts 42°
2026-04-22 16:44 10.84397 -74.81963 935 ft 210 kts 38°
2026-04-22 16:45 10.85486 -74.81077 733 ft 192 kts 39°
2026-04-22 16:45 10.86449 -74.80243 512 ft 173 kts 40°
2026-04-22 16:45 10.87312 -74.79505 283 ft 155 kts 39°
2026-04-22 16:45 10.88111 -74.78824 108 ft 145 kts 40°
2026-04-22 16:46 10.88792 -74.78235 88 ft 102 kts 40°
2026-04-22 16:46 10.89158 -74.77922 67 ft 35 kts 40°
2026-04-22 16:46 10.89256 -74.77839 62 ft 15 kts 40°
2026-04-22 16:46 10.89339 -74.77767 65 ft 16 kts 42°
2026-04-22 16:47 10.89380 -74.77667 67 ft 16 kts 83°
2026-04-22 16:47 10.89375 -74.77579 62 ft 12 kts 114°
2026-04-22 16:47 10.89310 -74.77533 62 ft 12 kts 158°
2026-04-22 16:47 10.89235 -74.77502 65 ft 12 kts 158°
2026-04-22 16:48 10.89156 -74.77490 65 ft 12 kts 186°
2026-04-22 16:48 10.89084 -74.77526 64 ft 12 kts 214°